User: anonymous   Login
Location: Space Photons Observatory
(33.2428°N, 111.5467°W)
Time: 23:08:53
(UTC-07:00)
Language:

RESURS DK-1 - Orbit

View from above orbital plane
View from above orbital plane
View from above satellite
View from above satellite

Ground track
Ground track

The orbit data is extracted from the following two-line orbital elements,

1 29228U 06021A   15087.81502267  .00001215  00000-0  10161-3 0  9995
2 29228 069.9397 001.3385 0004567 186.3033 229.0646 15.01346042486287
Epoch (UTC): 28 March 2015 19:33:37
Eccentricity: 0.0004567
inclination: 69.9397°
perigee height: 559 km
apogee height: 566 km
right ascension of ascending node: 1.3385°
argument of perigee: 186.3033°
revolutions per day: 15.01346042
mean anomaly at epoch: 229.0646°
orbit number at epoch: 48628

The dashed part of the orbit path shows where the satellite is in the earth's shadow,  

DLR